(737) Arequipa
ephemeris date magn radius delta ra dec elong phase
Today5 Feb 202513.82.195 AU2.751 AU00h14m-01°38'46.7°19.1°
Opposition29 Dec 202513.32.986 AU2.036 AU06h30m+04°57'161.7°5.9°
(737) Arequipa - 2025-02-05
astro.vanbuitenen.nl


 
-1 year
-1 month
-1 day
Now
+1 day
+1 month
+1 year

The interactive orbit chart above shows the body's path through the solar system and its position at the given date. Green and blue lines are shown perpendicular to the ecliptic plane: Green if the path is above the ecliptic plane, blue if it is below. (Left-click and drag to rotate the view; Right-click and drag to move the view; Use scroll wheel to zoom in our out.)

The orbital elements of Arequipa are:

            e (Eccentricity)                : 0.2440588
            a (Semimajor axis)              : 2.5906721
            i (Inclination)                 : 12.36744
            Ω (Longitude of ascending node) : 184.60840
            ω (Argument of perihelion)      : 134.27991
            M (Mean anomaly)                : 14.14834
            Epoch                           : 2024 Oct 17

            L (Longitude of perihelion)     : 139.56087
            B (Latitude of perihelion)      : 8.82052
            P (Orbital period in years)     : 4.17            
        

The light curve chart below shows the estimated development of the minor planet's magnitude.


The all-sky chart below shows the path of the minor planet over the same period as the light curve. The current position is marked yellow.





The following chart shows the path of the minor planet in the next few days. The field of view is optimized for (~10x50) binoculars and finderscopes. A more printer-friendly version of the same chart can be found below.




Ephemerides:
Date       Time       RA (2000)    DEC (2000)    delta   radius  elong  phase   PA    magn
2025-02-05 00:00 UT   00 14 31.6   -01 38 34     2.751    2.195   46.7   19.1    69   13.8 
2025-02-05 14:49 UT   00 15 42.0   -01 32 42     2.758    2.197   46.4   19.0    69   13.8 
2025-02-06 00:00 UT   00 16 25.5   -01 29 04     2.762    2.198   46.2   18.9    69   13.8 
2025-02-07 00:00 UT   00 18 19.4   -01 19 33     2.773    2.200   45.6   18.7    70   13.8 
2025-02-08 00:00 UT   00 20 13.3   -01 10 01     2.784    2.203   45.1   18.5    70   13.8 
2025-02-09 00:00 UT   00 22 07.2   -01 00 28     2.795    2.205   44.6   18.3    70   13.8 
2025-02-10 00:00 UT   00 24 01.1   +00 50 55     2.806    2.207   44.1   18.1    70   13.8 
2025-02-11 00:00 UT   00 25 55.0   +00 41 21     2.817    2.210   43.6   17.9    70   13.9 
2025-02-12 00:00 UT   00 27 48.8   +00 31 46     2.828    2.212   43.1   17.8    70   13.9 
2025-02-13 00:00 UT   00 29 42.7   +00 22 11     2.838    2.215   42.6   17.6    70   13.9 
2025-02-14 00:00 UT   00 31 36.6   +00 12 36     2.849    2.217   42.1   17.4    70   13.9 
2025-02-15 00:00 UT   00 33 30.4   +00 03 01     2.859    2.220   41.6   17.2    71   13.9 
2025-02-16 00:00 UT   00 35 24.3   +00 06 35     2.870    2.222   41.1   17.0    71   13.9 
2025-02-17 00:00 UT   00 37 18.1   +00 16 11     2.880    2.225   40.6   16.8    71   13.9 
2025-02-18 00:00 UT   00 39 11.9   +00 25 47     2.891    2.227   40.1   16.6    71   13.9 
2025-02-19 00:00 UT   00 41 05.8   +00 35 23     2.901    2.230   39.6   16.4    71   13.9 
2025-02-20 00:00 UT   00 42 59.6   +00 44 58     2.911    2.232   39.1   16.2    71   13.9 
2025-02-21 00:00 UT   00 44 53.5   +00 54 34     2.921    2.235   38.6   16.0    72   13.9 


    Terminology:
            
    delta:  distance between minor planet and earth in AU
    radius: distance between minor planet and sun in AU
    magn:   magnitude (brightness) estimate    
    ra:     right ascension in hours (24h = 360deg)
    dec:    declination in degrees
    elong:  elongation in degrees (angle sun-earth-minor planet)    
    phase:  phase angle in degrees (angle sun-minor planet-earth)        
    AU:     Astronomical Unit (mean distance between earth and sun: 149597870.7 km
    

Orbital elements provided by the MPC (Minor Planet Center).
Calculations by a modified version of AAPlus, a C# implementation of the AA+ project by PJ Naughter from the algorithms presented in the book "Astronomical Algorithms" by Jean Meeus.
NGC2000 dso catalog and star labels from VizieR as provided by the Strasbourg astronomical Data Center.
Tycho2 catalog from the ESO archive.